Погода в Осетровке

Россия / Воронежская область     50°08′35″N   40°28′16″E
темп.,
°C
ветер,
м/с
пор.,
м/с
влажн.,
%
обл.,
%
осадки,
мм/ч
давл.,
гПа
погр.,
м
17 апреля, сб
сб1700:00+9ююз117289 0.0 101811
03:00+9юз3593100 3.4 1019309
06:00+8сз1193100 2.3 1018120
09:00+9зюз468999 4.2 1018389
12:00+10ю2376100 1.6 1019597
15:00+14зюз454918 2.0 10181776
18:00+13зюз35475 0.0 1018268
21:00+8з49685 0.0 1020195
18 апреля, вс
вс1800:00+6з36785 0.0 1021121
03:00+5зюз22795 0.0 102115
06:00+5юз227912 0.0 102127
09:00+10зюз345829 0.0 1021774
12:00+13зсз344370 0.0 10201871
15:00+14сз434185 0.0 10201872
18:00+13с344987 0.0 1020484
21:00+10св4757100 0.0 1020160
19 апреля, пн
пн1900:00+10всв4859100 0.0 1020200
03:00+8всв3866100 0.0 1019192
06:00+9вюв3768100 0.0 1018236
09:00+11вюв3562100 0.0 1018606
12:00+11вюв5771100 0.4 10171264
15:00+9в51084100 0.9 1016563
18:00+10в5981100 0.1 1015564
21:00+9в51090100 0.4 1015556
20 апреля, вт
вт2000:00+9в51092100 0.1 1013590
03:00+9в4994100 0.2 1012460
06:00+9в51096100 0.1 1009393
09:00+10в71597100 1.4 1006572
12:00+12вюв91795100 11.4 10041080
15:00+14юв122181100 13.2 10021357
18:00+14ююв81381100 1.3 1002736
21:00+12ю8148295 1.7 10041013
21 апреля, ср
ср2100:00+10ю81385100 1.8 1004991
03:00+9ю101785100 2.3 10051105
06:00+10юз8128796 0.4 1008901
09:00+9юз51081100 0.4 1013972
12:00+13юз6855100 0.1 10151862
15:00+14ююз475377 0.1 10161775
18:00+13ююз586350 0.3 1017590
21:00+9ююз35735 0.3 101983